Starlink 11230

operational
NORAD ID: 61053 Int'l Des: 2024-164 Owner: SPXS Country: US Constellation: starlink
LEOCIRCULAR

Starlink 11230について

説明を読み込み中...

リアルタイム位置

3D地球を読み込み中...

次回通過

高度履歴

Altitude vs Time

uPlot chart will show altitude changes over time

軌道要素

1 61053U 24164D 25259.25277711 -.00000546 00000-0 34371-6 0 9997
2 61053 53.1597 91.0325 0000843 83.6655 276.4459 15.69705205 58027
Epoch: Sep 16, 2025 • Age: 14 hours

現在のステータス

高度 360.1 km
速度 7.70 km/s
衛星直下点 21.75°N, 52.25°W
打ち上げ日 Sep 13, 2024
運用期間 1 years
タイプ internet

技術仕様

分類 Payload
質量 960.00 kg
乾燥質量 910.00 kg
総質量 960.00 kg
長さ 0.30 m
直径 4.10 m
スパン 29.00 m
形状 Box + pan
製造者 SPXS
バスタイプ Starlink V2MD
フェーズステータス In Orbit
所有者/国 SPXS/US

大規模コンステレーション

Loading constellations...